User: anonymous   Login
Location: Austin
(30.3000°N, 97.7500°W)
Time: 04:31:34
(UTC-06:00)
Language:

CZ-2C R/B - Orbit

View from above orbital plane
View from above orbital plane
View from above satellite
View from above satellite

Ground track
Ground track

The orbit data is extracted from the following two-line orbital elements,

1 36089U 09061B   23331.86506446  .00001257  00000-0  31876-3 0  9996
2 36089  98.3323 294.3382 0080702  16.0730 344.2997 14.50645589742829
Epoch (UTC): 27 November 2023 20:45:41
Eccentricity: 0.0080702
inclination: 98.3323°
perigee height: 666 km
apogee height: 781 km
right ascension of ascending node: 294.3382°
argument of perigee: 16.0730°
revolutions per day: 14.50645589
mean anomaly at epoch: 344.2997°
orbit number at epoch: 74282

The dashed part of the orbit path shows where the satellite is in the earth's shadow,  

DLR